Volver al catálogo

SpaceTeamSat1

STS1

ActivoRadioaficionadoSSO
NORAD 99416·PAYLOAD·🇦🇹 Austria

Lanzado Sep 5, 2026 desde Andøya Spaceport

Loading…

Próximos Pases (próximas 24 horas)

TLE

ActualizadoSource: SatNOGS

Época: Sep 13, 2026, 14:56 UTC

1 99416U 26203A   26256.62246703 -.00004687  00000-0 -33657-3 0  9997
2 99416  97.4203 331.6100 0058328 250.8419 108.6487 15.02435203  1173

Sigue SpaceTeamSat1 en tiempo real con AllMySat

Download on the App Store